contact:dominique.lefevre@mio.osupytheas.fr, maurice.libes@osupytheas.fr, didier.mallarino@osupytheas.fr
Project:EMSO http://www.emso-fr.org/EMSO-France
Depth: 2436.0 m
Title:EMSO Ligure Ouest : Data MII capteur AQUADOPP
Date,Latitude,Longitude,X_East,Y_North,Z_Up,Amplitude_X,Amplitude_Y,Amplitude_Z,Batterie,SoundSpeed,Heading,Pitch,Roll,Pressure,TIS,Speed,Direction
, degrees North, degrees East, m.s-1, m.s-1,m.s-1, 1, 1, 1, Volt, m.s-1, degree, degree, degree, dbar, degree_C, m.s-1, degree
2021-03-20T00:04:03,42.805,6.029,0.0,0.066,0.03,111.0,110.0,107.0,13.3,1505.2,327.5,-0.7,1.8,2469.881,13.28,0.065,0.0
2021-03-20T00:07:03,42.805,6.029,-0.017,0.048,0.016,111.0,111.0,107.0,13.4,1505.2,327.5,-0.7,1.8,2469.847,13.28,0.05,340.5
2021-03-20T00:10:03,42.805,6.029,-0.004,0.051,0.028,110.0,110.0,106.0,13.4,1505.2,326.8,-0.8,1.8,2469.846,13.28,0.051,355.5
2021-03-20T00:13:03,42.805,6.029,-0.005,0.051,-0.006,110.0,111.0,107.0,13.3,1505.2,327.1,-0.8,1.8,2469.818,13.28,0.051,354.4
2021-03-20T00:16:03,42.805,6.029,-0.007,0.058,0.031,110.0,111.0,107.0,13.4,1505.2,327.1,-0.8,1.8,2469.848,13.28,0.058,353.1
2021-03-20T00:19:03,42.805,6.029,-0.016,0.04,0.051,112.0,111.0,107.0,13.4,1505.2,327.1,-0.8,1.8,2469.783,13.28,0.043,338.2
2021-03-20T00:22:03,42.805,6.029,0.009,0.048,0.048,111.0,110.0,106.0,13.4,1505.2,327.6,-0.7,1.8,2469.833,13.28,0.048,10.6
2021-03-20T00:25:03,42.805,6.029,-0.008,0.048,0.028,111.0,112.0,107.0,13.4,1505.2,327.1,-0.8,1.8,2469.8,13.28,0.048,350.5
2021-03-20T00:28:03,42.805,6.029,0.0,0.055,0.041,111.0,112.0,107.0,13.4,1505.2,327.0,-0.8,1.8,2469.817,13.28,0.055,0.0
2021-03-20T00:31:03,42.805,6.029,-0.014,0.042,0.01,111.0,110.0,107.0,13.4,1505.2,327.1,-0.8,1.8,2469.788,13.28,0.044,341.6
2021-03-20T00:34:03,42.805,6.029,-0.007,0.044,0.031,111.0,112.0,108.0,13.4,1505.2,327.0,-0.7,1.8,2469.793,13.28,0.044,351.0
2021-03-20T00:37:03,42.805,6.029,-0.008,0.053,0.011,110.0,111.0,109.0,13.4,1505.2,327.5,-0.8,1.8,2469.788,13.28,0.053,351.4
2021-03-20T00:40:03,42.805,6.029,-0.02,0.056,0.0,112.0,111.0,106.0,13.4,1505.2,327.9,-0.8,1.8,2469.769,13.28,0.059,340.4
2021-03-20T00:43:03,42.805,6.029,-0.006,0.04,-0.001,111.0,113.0,107.0,13.3,1505.2,327.6,-0.7,1.8,2469.807,13.28,0.04,351.5
2021-03-20T00:46:03,42.805,6.029,-0.008,0.043,0.042,111.0,111.0,108.0,13.4,1505.2,327.5,-0.7,1.8,2469.781,13.28,0.043,349.5
2021-03-20T00:49:03,42.805,6.029,-0.023,0.051,0.027,112.0,112.0,107.0,13.4,1505.2,327.5,-0.8,1.8,2469.796,13.28,0.055,335.7
2021-03-20T00:52:03,42.805,6.029,-0.02,0.062,0.03,112.0,111.0,107.0,13.4,1505.2,327.5,-0.8,1.8,2469.758,13.28,0.065,342.1
2021-03-20T00:55:03,42.805,6.029,-0.02,0.03,-0.003,111.0,113.0,106.0,13.4,1505.2,327.5,-0.7,1.8,2469.82,13.28,0.036,326.3
2021-03-20T00:58:03,42.805,6.029,-0.01,0.046,-0.001,111.0,112.0,107.0,13.4,1505.2,327.5,-0.8,1.8,2469.778,13.28,0.047,347.7
2021-03-20T01:04:03,42.805,6.029,-0.001,0.071,0.003,110.0,112.0,107.0,13.4,1505.2,327.8,-0.8,1.8,2469.825,13.28,0.071,359.2
2021-03-20T01:07:03,42.805,6.029,-0.024,0.052,-0.023,111.0,112.0,107.0,13.4,1505.2,327.7,-0.8,1.8,2469.807,13.28,0.057,335.2
2021-03-20T01:10:03,42.805,6.029,-0.011,0.059,0.028,111.0,111.0,108.0,13.3,1505.2,327.7,-0.8,1.8,2469.792,13.28,0.06,349.4
2021-03-20T01:13:03,42.805,6.029,-0.002,0.06,0.008,111.0,111.0,107.0,13.4,1505.2,327.2,-0.8,1.8,2469.789,13.28,0.06,358.1
2021-03-20T01:16:03,42.805,6.029,-0.013,0.043,0.01,113.0,112.0,107.0,13.4,1505.2,327.6,-0.7,1.8,2469.779,13.28,0.044,343.2
2021-03-20T01:19:03,42.805,6.029,-0.019,0.061,0.033,109.0,112.0,107.0,13.4,1505.2,327.2,-0.8,1.8,2469.83,13.28,0.063,342.7
2021-03-20T01:22:03,42.805,6.029,0.003,0.05,0.003,112.0,112.0,108.0,13.3,1505.2,326.8,-0.7,1.8,2469.764,13.28,0.05,3.4
2021-03-20T01:25:03,42.805,6.029,0.0,0.044,0.036,111.0,111.0,108.0,13.3,1505.2,327.1,-0.7,1.8,2469.788,13.28,0.044,0.0
2021-03-20T01:28:03,42.805,6.029,-0.017,0.074,0.033,112.0,112.0,107.0,13.4,1505.2,327.5,-0.8,1.8,2469.804,13.28,0.075,347.1
2021-03-20T01:31:03,42.805,6.029,-0.012,0.048,0.005,112.0,110.0,108.0,13.4,1505.2,327.1,-0.8,1.8,2469.778,13.28,0.049,346.0
2021-03-20T01:34:03,42.805,6.029,-0.015,0.051,0.024,112.0,113.0,106.0,13.3,1505.2,327.7,-0.8,1.9,2469.799,13.28,0.053,343.6
2021-03-20T01:37:03,42.805,6.029,-0.012,0.044,-0.013,111.0,111.0,107.0,13.4,1505.2,327.1,-0.8,1.8,2469.807,13.28,0.045,344.7
2021-03-20T01:40:03,42.805,6.029,-0.01,0.03,0.044,111.0,112.0,108.0,13.4,1505.2,326.8,-0.8,1.8,2469.805,13.28,0.031,341.6
2021-03-20T01:43:03,42.805,6.029,0.006,0.057,0.003,112.0,110.0,108.0,13.4,1505.2,327.7,-0.7,1.8,2469.808,13.28,0.057,6.0
2021-03-20T01:46:03,42.805,6.029,-0.019,0.046,0.02,112.0,111.0,107.0,13.4,1505.2,327.5,-0.7,1.8,2469.776,13.28,0.049,337.6
2021-03-20T01:49:03,42.805,6.029,-0.019,0.033,0.016,111.0,112.0,109.0,13.4,1505.2,327.4,-0.7,1.8,2469.797,13.28,0.038,330.1
2021-03-20T01:52:03,42.805,6.029,-0.02,0.032,0.016,111.0,112.0,108.0,13.4,1505.2,327.6,-0.8,1.8,2469.829,13.28,0.037,328.0
2021-03-20T01:55:03,42.805,6.029,0.009,0.05,0.023,112.0,112.0,108.0,13.3,1505.2,327.8,-0.7,1.8,2469.795,13.28,0.05,10.2
2021-03-20T01:58:03,42.805,6.029,-0.016,0.037,0.025,111.0,113.0,106.0,13.4,1505.2,327.2,-0.7,1.8,2469.832,13.28,0.04,336.6
2021-03-20T02:04:03,42.805,6.029,-0.015,0.046,-0.002,112.0,113.0,108.0,13.4,1505.2,327.3,-0.8,1.8,2469.879,13.28,0.048,341.9
2021-03-20T02:07:03,42.805,6.029,-0.012,0.06,0.023,111.0,111.0,106.0,13.3,1505.2,327.4,-0.8,1.8,2469.83,13.28,0.061,348.7
2021-03-20T02:10:03,42.805,6.029,-0.008,0.03,0.029,112.0,111.0,108.0,13.4,1505.2,327.3,-0.7,1.8,2469.844,13.28,0.031,345.1
2021-03-20T02:13:03,42.805,6.029,-0.009,0.057,0.023,112.0,112.0,107.0,13.3,1505.2,327.2,-0.8,1.8,2469.837,13.28,0.057,351.0
2021-03-20T02:16:03,42.805,6.029,-0.002,0.054,0.012,110.0,113.0,109.0,13.4,1505.2,327.8,-0.7,1.8,2469.811,13.28,0.054,357.9
2021-03-20T02:19:03,42.805,6.029,-0.004,0.06,0.009,112.0,111.0,108.0,13.4,1505.2,327.7,-0.7,1.8,2469.785,13.28,0.06,356.2
2021-03-20T02:22:03,42.805,6.029,-0.035,0.035,-0.003,111.0,111.0,107.0,13.4,1505.2,327.6,-0.7,1.8,2469.818,13.28,0.049,315.0
2021-03-20T02:25:03,42.805,6.029,-0.003,0.033,0.016,113.0,111.0,107.0,13.4,1505.2,327.3,-0.8,1.8,2469.802,13.28,0.033,354.8
2021-03-20T02:28:03,42.805,6.029,-0.029,0.04,0.009,111.0,112.0,107.0,13.4,1505.2,327.1,-0.8,1.8,2469.826,13.28,0.049,324.1
2021-03-20T02:31:03,42.805,6.029,-0.037,0.063,0.007,110.0,111.0,109.0,13.3,1505.2,327.5,-0.7,1.8,2469.792,13.28,0.073,329.6
2021-03-20T02:34:03,42.805,6.029,-0.004,0.053,0.033,113.0,113.0,107.0,13.3,1505.2,327.1,-0.7,1.8,2469.872,13.28,0.053,355.7
2021-03-20T02:37:03,42.805,6.029,-0.012,0.042,0.0,110.0,111.0,106.0,13.4,1505.2,327.3,-0.8,1.8,2469.828,13.28,0.043,344.1
2021-03-20T02:40:03,42.805,6.029,-0.028,0.06,0.046,111.0,111.0,107.0,13.4,1505.2,327.4,-0.8,1.8,2469.837,13.28,0.066,335.0
2021-03-20T02:43:03,42.805,6.029,-0.008,0.024,0.005,112.0,112.0,106.0,13.3,1505.2,327.2,-0.7,1.9,2469.808,13.28,0.025,341.6
2021-03-20T02:46:03,42.805,6.029,-0.018,0.051,0.046,111.0,111.0,107.0,13.4,1505.2,327.4,-0.7,1.8,2469.81,13.28,0.054,340.6
2021-03-20T02:49:03,42.805,6.029,-0.011,0.047,0.024,111.0,112.0,107.0,13.4,1505.2,327.1,-0.8,1.8,2469.789,13.28,0.048,346.8
2021-03-20T02:52:03,42.805,6.029,-0.017,0.056,0.049,111.0,112.0,107.0,13.3,1505.2,326.8,-0.8,1.8,2469.837,13.28,0.058,343.1
2021-03-20T02:55:03,42.805,6.029,-0.021,0.034,-0.009,111.0,111.0,108.0,13.4,1505.2,327.7,-0.7,1.8,2469.778,13.28,0.039,328.3
2021-03-20T02:58:03,42.805,6.029,-0.023,0.032,0.004,112.0,111.0,108.0,13.4,1505.2,327.0,-0.8,1.8,2469.863,13.28,0.039,324.3
2021-03-20T03:04:03,42.805,6.029,0.0,0.037,0.024,112.0,111.0,108.0,13.4,1505.2,327.3,-0.8,1.9,2469.861,13.28,0.037,0.0
2021-03-20T03:07:03,42.805,6.029,-0.011,0.057,0.011,111.0,111.0,108.0,13.3,1505.2,326.8,-0.8,1.8,2469.852,13.28,0.058,349.1
2021-03-20T03:10:03,42.805,6.029,0.001,0.042,0.005,112.0,111.0,106.0,13.4,1505.2,327.0,-0.7,1.8,2469.809,13.28,0.042,1.4
2021-03-20T03:13:03,42.805,6.029,-0.017,0.052,0.027,112.0,112.0,108.0,13.4,1505.2,327.5,-0.8,1.8,2469.865,13.28,0.054,341.9
2021-03-20T03:16:03,42.805,6.029,-0.018,0.044,-0.006,111.0,111.0,108.0,13.4,1505.2,327.8,-0.8,1.9,2469.782,13.28,0.047,337.8
2021-03-20T03:19:03,42.805,6.029,-0.013,0.061,0.012,111.0,109.0,108.0,13.4,1505.2,327.2,-0.7,1.8,2469.807,13.28,0.062,348.0
2021-03-20T03:22:03,42.805,6.029,-0.014,0.049,0.046,112.0,110.0,107.0,13.4,1505.2,327.6,-0.7,1.8,2469.815,13.28,0.05,344.1
2021-03-20T03:25:03,42.805,6.029,-0.023,0.051,-0.005,110.0,111.0,107.0,13.4,1505.2,327.6,-0.7,1.8,2469.841,13.28,0.055,335.7
2021-03-20T03:28:03,42.805,6.029,-0.028,0.05,-0.03,112.0,109.0,107.0,13.4,1505.2,327.4,-0.7,1.8,2469.843,13.28,0.057,330.7
2021-03-20T03:31:03,42.805,6.029,-0.01,0.049,0.029,111.0,112.0,107.0,13.4,1505.2,327.1,-0.8,1.8,2469.853,13.28,0.05,348.5
2021-03-20T03:34:03,42.805,6.029,-0.011,0.04,-0.005,111.0,111.0,108.0,13.4,1505.2,327.0,-0.8,1.8,2469.88,13.28,0.041,344.6
2021-03-20T03:37:03,42.805,6.029,-0.027,0.06,-0.007,111.0,112.0,109.0,13.4,1505.2,327.5,-0.8,1.8,2469.847,13.28,0.065,335.8
2021-03-20T03:40:03,42.805,6.029,-0.018,0.038,0.01,111.0,112.0,107.0,13.3,1505.2,327.1,-0.8,1.8,2469.875,13.28,0.042,334.7
2021-03-20T03:43:03,42.805,6.029,-0.025,0.044,-0.001,112.0,112.0,106.0,13.4,1505.2,327.6,-0.7,1.8,2469.804,13.28,0.05,330.4
2021-03-20T03:46:03,42.805,6.029,-0.01,0.029,0.004,112.0,113.0,108.0,13.4,1505.2,327.1,-0.7,1.8,2469.887,13.28,0.03,341.0
2021-03-20T03:49:03,42.805,6.029,-0.01,0.036,0.015,111.0,112.0,108.0,13.4,1505.2,327.3,-0.8,1.8,2469.851,13.28,0.037,344.5
2021-03-20T03:52:03,42.805,6.029,-0.029,0.07,-0.002,112.0,111.0,109.0,13.4,1505.2,327.1,-0.8,1.8,2469.857,13.28,0.075,337.5
2021-03-20T03:55:03,42.805,6.029,-0.018,0.047,0.044,113.0,111.0,107.0,13.4,1505.2,327.4,-0.7,1.8,2469.865,13.28,0.05,339.0
2021-03-20T03:58:03,42.805,6.029,-0.016,0.032,0.001,112.0,110.0,108.0,13.4,1505.2,327.3,-0.8,1.8,2469.881,13.28,0.035,333.4
2021-03-20T04:04:03,42.805,6.029,-0.027,0.046,0.0,112.0,110.0,107.0,13.4,1505.2,327.3,-0.8,1.8,2469.901,13.28,0.053,329.6
2021-03-20T04:07:03,42.805,6.029,-0.019,0.057,-0.011,113.0,110.0,107.0,13.4,1505.2,327.1,-0.8,1.8,2469.894,13.28,0.06,341.6
2021-03-20T04:10:03,42.805,6.029,-0.006,0.066,0.008,111.0,112.0,108.0,13.3,1505.2,327.6,-0.7,1.8,2469.863,13.28,0.066,354.8
2021-03-20T04:13:03,42.805,6.029,-0.012,0.024,0.006,112.0,111.0,108.0,13.4,1505.2,327.8,-0.7,1.8,2469.86,13.28,0.026,333.4
2021-03-20T04:16:03,42.805,6.029,-0.008,0.054,0.009,111.0,111.0,108.0,13.4,1505.2,327.0,-0.7,1.8,2469.868,13.28,0.054,351.6
2021-03-20T04:19:03,42.805,6.029,-0.006,0.058,-0.004,112.0,109.0,107.0,13.4,1505.2,327.7,-0.8,1.9,2469.834,13.28,0.058,354.1
2021-03-20T04:22:03,42.805,6.029,-0.009,0.055,-0.001,111.0,110.0,107.0,13.4,1505.2,327.5,-0.7,1.8,2469.863,13.28,0.055,350.7
2021-03-20T04:25:03,42.805,6.029,-0.007,0.031,0.012,111.0,111.0,108.0,13.4,1505.2,327.3,-0.8,1.9,2469.849,13.28,0.031,347.3
2021-03-20T04:28:03,42.805,6.029,-0.033,0.04,0.035,111.0,110.0,107.0,13.4,1505.2,327.1,-0.8,1.8,2469.878,13.28,0.051,320.5
2021-03-20T04:31:03,42.805,6.029,0.0,0.04,0.008,111.0,111.0,108.0,13.4,1505.2,326.8,-0.8,1.8,2469.887,13.28,0.04,0.0
2021-03-20T04:34:03,42.805,6.029,-0.01,0.055,0.048,112.0,111.0,107.0,13.4,1505.2,327.2,-0.7,1.8,2469.868,13.28,0.055,349.7
2021-03-20T04:37:03,42.805,6.029,-0.011,0.032,-0.017,111.0,111.0,107.0,13.3,1505.2,327.2,-0.7,1.8,2469.842,13.28,0.033,341.0
2021-03-20T04:40:03,42.805,6.029,-0.002,0.045,0.01,111.0,110.0,106.0,13.4,1505.2,327.5,-0.7,1.8,2469.868,13.28,0.045,357.5
2021-03-20T04:43:03,42.805,6.029,-0.008,0.024,0.008,112.0,111.0,107.0,13.4,1505.2,327.2,-0.8,1.8,2469.888,13.28,0.025,341.6
2021-03-20T04:46:03,42.805,6.029,0.001,0.047,-0.007,111.0,111.0,108.0,13.3,1505.2,327.5,-0.8,1.8,2469.876,13.28,0.047,1.2
2021-03-20T04:49:03,42.805,6.029,-0.028,0.039,0.002,113.0,111.0,106.0,13.3,1505.2,327.8,-0.7,1.8,2469.897,13.28,0.048,324.3
2021-03-20T04:52:03,42.805,6.029,-0.007,0.029,0.02,112.0,112.0,107.0,13.4,1505.2,327.6,-0.7,1.8,2469.882,13.28,0.029,346.4
2021-03-20T04:55:03,42.805,6.029,-0.018,0.047,0.013,111.0,113.0,108.0,13.3,1505.2,327.4,-0.7,1.8,2469.834,13.28,0.05,339.0
2021-03-20T04:58:03,42.805,6.029,-0.001,0.047,-0.016,112.0,112.0,108.0,13.3,1505.2,327.2,-0.8,1.8,2469.895,13.28,0.047,358.8
2021-03-20T05:04:03,42.805,6.029,-0.017,0.047,0.049,112.0,111.0,109.0,13.4,1505.2,327.3,-0.8,1.8,2469.94,13.28,0.049,340.1
2021-03-20T05:07:03,42.805,6.029,-0.024,0.067,0.003,112.0,111.0,108.0,13.3,1505.2,327.1,-0.7,1.8,2469.9,13.28,0.071,340.3
2021-03-20T05:10:03,42.805,6.029,0.006,0.049,0.03,111.0,111.0,108.0,13.4,1505.2,327.7,-0.8,1.8,2469.873,13.28,0.049,7.0
2021-03-20T05:13:03,42.805,6.029,-0.009,0.034,0.012,110.0,111.0,107.0,13.3,1505.2,327.5,-0.8,1.8,2469.829,13.28,0.035,345.2
2021-03-20T05:16:03,42.805,6.029,-0.016,0.037,0.019,112.0,111.0,107.0,13.4,1505.2,327.2,-0.8,1.8,2469.851,13.28,0.04,336.6
2021-03-20T05:19:03,42.805,6.029,-0.025,0.051,0.001,112.0,110.0,106.0,13.4,1505.2,327.0,-0.8,1.8,2469.892,13.28,0.056,333.9
2021-03-20T05:22:03,42.805,6.029,-0.035,0.034,0.007,111.0,111.0,107.0,13.3,1505.2,327.1,-0.8,1.9,2469.901,13.28,0.048,314.2
2021-03-20T05:25:03,42.805,6.029,-0.005,0.034,0.042,111.0,111.0,106.0,13.4,1505.2,327.1,-0.7,1.8,2469.867,13.28,0.034,351.6
2021-03-20T05:28:03,42.805,6.029,-0.011,0.036,0.026,110.0,112.0,106.0,13.4,1505.2,327.7,-0.8,1.8,2469.867,13.28,0.037,343.0
2021-03-20T05:31:03,42.805,6.029,-0.01,0.03,0.012,112.0,111.0,108.0,13.4,1505.2,327.6,-0.7,1.8,2469.851,13.28,0.031,341.6
2021-03-20T05:34:03,42.805,6.029,-0.001,0.051,-0.008,110.0,112.0,107.0,13.4,1505.2,327.1,-0.7,1.8,2469.868,13.28,0.051,358.9
2021-03-20T05:37:03,42.805,6.029,0.012,0.03,0.0,111.0,111.0,107.0,13.4,1505.2,327.5,-0.7,1.8,2469.864,13.28,0.032,21.8
2021-03-20T05:40:03,42.805,6.029,-0.014,0.029,0.015,111.0,111.0,107.0,13.4,1505.2,327.7,-0.8,1.8,2469.829,13.28,0.032,334.2
2021-03-20T05:43:03,42.805,6.029,-0.007,0.046,0.01,111.0,110.0,107.0,13.4,1505.2,327.3,-0.7,1.8,2469.883,13.28,0.046,351.3
2021-03-20T05:46:03,42.805,6.029,0.006,0.046,0.019,112.0,111.0,106.0,13.4,1505.2,327.5,-0.8,1.9,2469.827,13.28,0.046,7.4
2021-03-20T05:49:03,42.805,6.029,-0.015,0.028,0.014,112.0,111.0,107.0,13.3,1505.2,327.7,-0.8,1.9,2469.859,13.28,0.031,331.8
2021-03-20T05:52:03,42.805,6.029,-0.005,0.034,0.003,111.0,111.0,107.0,13.4,1505.2,327.6,-0.8,1.8,2469.86,13.28,0.034,351.6
2021-03-20T05:55:03,42.805,6.029,-0.03,0.042,0.02,110.0,111.0,108.0,13.4,1505.2,327.3,-0.8,1.8,2469.861,13.28,0.051,324.5
2021-03-20T05:58:03,42.805,6.029,-0.015,0.053,-0.003,111.0,111.0,107.0,13.4,1505.2,326.8,-0.8,1.8,2469.857,13.28,0.055,344.2
2021-03-20T06:04:03,42.805,6.029,-0.015,0.046,0.0,110.0,111.0,107.0,13.4,1505.2,327.4,-0.8,1.8,2469.892,13.28,0.048,341.9
2021-03-20T06:07:03,42.805,6.029,-0.029,0.047,0.024,109.0,109.0,107.0,13.4,1505.2,327.0,-0.8,1.8,2469.8,13.28,0.055,328.3
2021-03-20T06:10:03,42.805,6.029,-0.009,0.034,0.003,111.0,109.0,107.0,13.4,1505.2,327.2,-0.7,1.8,2469.858,13.28,0.035,345.2
2021-03-20T06:13:03,42.805,6.029,0.004,0.043,0.02,111.0,110.0,106.0,13.4,1505.2,326.8,-0.8,1.8,2469.856,13.28,0.043,5.3
2021-03-20T06:16:03,42.805,6.029,-0.034,0.045,0.022,111.0,109.0,105.0,13.4,1505.2,327.0,-0.8,1.8,2469.817,13.28,0.056,322.9
2021-03-20T06:19:03,42.805,6.029,-0.01,0.039,-0.011,109.0,110.0,106.0,13.3,1505.2,327.9,-0.7,1.8,2469.862,13.28,0.04,345.6
2021-03-20T06:22:03,42.805,6.029,-0.024,0.062,0.0,110.0,111.0,107.0,13.4,1505.2,327.5,-0.8,1.8,2469.876,13.28,0.066,338.8
2021-03-20T06:25:03,42.805,6.029,-0.028,0.048,-0.013,111.0,110.0,106.0,13.4,1505.2,326.8,-0.8,1.8,2469.837,13.28,0.055,329.7
2021-03-20T06:28:03,42.805,6.029,-0.009,0.037,0.027,110.0,110.0,107.0,13.3,1505.2,327.1,-0.7,1.9,2469.831,13.28,0.038,346.3
2021-03-20T06:31:03,42.805,6.029,-0.016,0.05,0.007,109.0,108.0,106.0,13.4,1505.2,327.4,-0.7,1.8,2469.852,13.28,0.052,342.3
2021-03-20T06:34:03,42.805,6.029,0.0,0.036,0.024,109.0,109.0,104.0,13.4,1505.2,327.5,-0.8,1.8,2469.824,13.28,0.036,0.0
2021-03-20T06:37:03,42.805,6.029,-0.027,0.068,0.024,109.0,109.0,106.0,13.4,1505.2,327.2,-0.8,1.8,2469.794,13.28,0.073,338.3
2021-03-20T06:40:03,42.805,6.029,-0.028,0.034,0.015,109.0,109.0,107.0,13.4,1505.2,327.0,-0.7,1.9,2469.83,13.28,0.044,320.5
2021-03-20T06:43:03,42.805,6.029,-0.023,0.046,0.011,109.0,107.0,106.0,13.4,1505.2,327.1,-0.8,1.8,2469.807,13.28,0.051,333.4
2021-03-20T06:46:03,42.805,6.029,-0.019,0.05,0.006,110.0,109.0,106.0,13.4,1505.2,327.0,-0.8,1.8,2469.823,13.28,0.053,339.2
2021-03-20T06:49:03,42.805,6.029,-0.005,0.047,0.031,110.0,109.0,106.0,13.4,1505.2,327.2,-0.7,1.8,2469.813,13.28,0.047,353.9
2021-03-20T06:52:03,42.805,6.029,-0.025,0.028,0.025,109.0,110.0,107.0,13.4,1505.2,327.4,-0.7,1.8,2469.863,13.28,0.037,318.2
2021-03-20T06:55:03,42.805,6.029,-0.042,0.057,0.027,108.0,108.0,106.0,13.4,1505.2,326.9,-0.8,1.8,2469.799,13.28,0.07,323.6
2021-03-20T06:58:03,42.805,6.029,0.0,0.061,0.013,109.0,109.0,106.0,13.4,1505.2,327.1,-0.7,1.8,2469.835,13.28,0.06,0.0
2021-03-20T07:04:03,42.805,6.029,-0.024,0.036,0.026,109.0,109.0,105.0,13.4,1505.2,327.1,-0.7,1.8,2469.853,13.28,0.043,326.3
2021-03-20T07:07:03,42.805,6.029,-0.006,0.027,-0.001,110.0,109.0,105.0,13.3,1505.2,327.4,-0.7,1.8,2469.847,13.28,0.027,347.5
2021-03-20T07:10:03,42.805,6.029,-0.03,0.037,-0.003,111.0,110.0,105.0,13.4,1505.2,327.5,-0.8,1.9,2469.858,13.28,0.047,321.0
2021-03-20T07:13:03,42.805,6.029,0.007,0.054,0.024,110.0,110.0,106.0,13.4,1505.2,327.2,-0.7,1.8,2469.849,13.28,0.054,7.4
2021-03-20T07:16:03,42.805,6.029,-0.031,0.065,-0.004,109.0,110.0,105.0,13.4,1505.2,327.5,-0.7,1.8,2469.846,13.28,0.072,334.5
2021-03-20T07:19:03,42.805,6.029,-0.008,0.031,0.011,110.0,109.0,106.0,13.4,1505.2,326.8,-0.7,1.8,2469.831,13.28,0.032,345.5
2021-03-20T07:22:03,42.805,6.029,-0.002,0.056,0.006,108.0,110.0,106.0,13.4,1505.2,327.1,-0.8,1.8,2469.833,13.28,0.056,358.0
2021-03-20T07:25:03,42.805,6.029,-0.036,0.044,0.002,110.0,110.0,105.0,13.4,1505.2,327.6,-0.7,1.8,2469.829,13.28,0.056,320.7
2021-03-20T07:28:03,42.805,6.029,-0.031,0.031,-0.009,109.0,109.0,106.0,13.4,1505.2,326.9,-0.8,1.8,2469.808,13.28,0.043,315.0
2021-03-20T07:31:03,42.805,6.029,-0.028,0.021,0.011,111.0,109.0,107.0,13.4,1505.2,327.6,-0.8,1.8,2469.786,13.28,0.035,306.9
2021-03-20T07:34:03,42.805,6.029,-0.04,0.04,0.045,110.0,108.0,107.0,13.4,1505.2,327.0,-0.8,1.8,2469.833,13.28,0.056,315.0
2021-03-20T07:37:03,42.805,6.029,-0.027,0.053,0.032,109.0,109.0,106.0,13.4,1505.2,327.4,-0.8,1.8,2469.87,13.28,0.059,333.0
2021-03-20T07:40:03,42.805,6.029,-0.026,0.043,0.0,109.0,111.0,105.0,13.3,1505.2,327.3,-0.7,1.8,2469.827,13.28,0.05,328.8
2021-03-20T07:43:03,42.805,6.029,-0.027,0.026,0.008,110.0,110.0,106.0,13.4,1505.2,326.7,-0.8,1.8,2469.866,13.28,0.037,313.9
2021-03-20T07:46:03,42.805,6.029,0.01,0.007,0.041,110.0,109.0,106.0,13.4,1505.2,327.6,-0.7,1.8,2469.87,13.28,0.012,55.0
2021-03-20T07:49:03,42.805,6.029,-0.01,0.038,0.009,110.0,110.0,106.0,13.4,1505.2,327.2,-0.7,1.8,2469.816,13.28,0.039,345.3
2021-03-20T07:52:03,42.805,6.029,-0.019,0.04,0.01,110.0,110.0,106.0,13.4,1505.2,327.2,-0.7,1.8,2469.857,13.28,0.044,334.6
2021-03-20T07:55:03,42.805,6.029,-0.029,0.039,0.028,109.0,110.0,105.0,13.3,1505.2,327.8,-0.7,1.8,2469.886,13.28,0.048,323.4
2021-03-20T07:58:03,42.805,6.029,-0.009,0.04,0.057,111.0,109.0,106.0,13.4,1505.2,327.6,-0.8,1.8,2469.829,13.28,0.041,347.3
2021-03-20T08:04:03,42.805,6.029,-0.011,0.016,0.015,110.0,110.0,106.0,13.3,1505.2,327.7,-0.7,1.8,2469.866,13.28,0.019,325.5
2021-03-20T08:07:03,42.805,6.029,-0.014,0.038,0.018,110.0,110.0,106.0,13.3,1505.2,327.1,-0.8,1.8,2469.856,13.28,0.04,339.8
2021-03-20T08:10:03,42.805,6.029,-0.019,0.05,-0.003,110.0,109.0,106.0,13.4,1505.2,327.4,-0.7,1.8,2469.839,13.28,0.053,339.2
2021-03-20T08:13:03,42.805,6.029,-0.036,0.033,-0.003,111.0,109.0,105.0,13.4,1505.2,327.4,-0.8,1.8,2469.847,13.28,0.048,312.5
2021-03-20T08:16:03,42.805,6.029,-0.012,0.046,-0.01,109.0,110.0,105.0,13.4,1505.2,327.4,-0.8,1.8,2469.854,13.28,0.047,345.4
2021-03-20T08:19:03,42.805,6.029,-0.043,0.056,0.02,109.0,110.0,106.0,13.3,1505.2,327.8,-0.7,1.8,2469.829,13.28,0.07,322.5
2021-03-20T08:22:03,42.805,6.029,-0.019,0.044,-0.009,109.0,108.0,106.0,13.3,1505.2,327.5,-0.7,1.8,2469.884,13.28,0.047,336.6
2021-03-20T08:25:03,42.805,6.029,-0.016,0.039,0.014,110.0,111.0,105.0,13.4,1505.2,327.6,-0.7,1.8,2469.846,13.28,0.042,337.7
2021-03-20T08:28:03,42.805,6.029,-0.021,0.034,0.011,111.0,110.0,106.0,13.4,1505.2,327.0,-0.7,1.8,2469.852,13.28,0.039,328.3
2021-03-20T08:31:03,42.805,6.029,-0.025,0.038,0.004,109.0,109.0,106.0,13.4,1505.2,327.1,-0.8,1.8,2469.823,13.28,0.045,326.7
2021-03-20T08:34:03,42.805,6.029,-0.016,0.034,0.007,110.0,110.0,107.0,13.3,1505.2,327.5,-0.8,1.8,2469.862,13.28,0.037,334.8
2021-03-20T08:37:03,42.805,6.029,-0.026,0.052,-0.003,111.0,108.0,107.0,13.3,1505.2,327.2,-0.7,1.8,2469.841,13.28,0.058,333.4
2021-03-20T08:40:03,42.805,6.029,0.006,0.039,0.0,109.0,109.0,105.0,13.3,1505.2,327.4,-0.8,1.8,2469.864,13.28,0.039,8.7
2021-03-20T08:43:03,42.805,6.029,-0.017,0.033,0.007,109.0,110.0,106.0,13.4,1505.2,327.3,-0.8,1.8,2469.862,13.28,0.037,332.7
2021-03-20T08:46:03,42.805,6.029,-0.022,0.029,-0.01,112.0,109.0,106.0,13.4,1505.2,327.6,-0.7,1.8,2469.828,13.28,0.036,322.8
2021-03-20T08:49:03,42.805,6.029,-0.008,0.037,0.023,110.0,108.0,106.0,13.3,1505.2,327.3,-0.8,1.8,2469.859,13.28,0.037,347.8
2021-03-20T08:52:03,42.805,6.029,-0.021,0.034,0.006,109.0,111.0,106.0,13.3,1505.2,327.2,-0.7,1.8,2469.869,13.28,0.039,328.3
2021-03-20T08:55:03,42.805,6.029,-0.024,0.032,0.012,108.0,109.0,105.0,13.4,1505.2,327.7,-0.8,1.8,2469.823,13.28,0.04,323.1
2021-03-20T08:58:03,42.805,6.029,-0.021,0.035,-0.003,109.0,110.0,106.0,13.4,1505.2,327.3,-0.7,1.9,2469.908,13.28,0.04,329.0
2021-03-20T09:04:03,42.805,6.029,-0.008,0.041,0.028,108.0,109.0,105.0,13.4,1505.2,327.7,-0.7,1.8,2469.986,13.28,0.041,349.0
2021-03-20T09:07:03,42.805,6.029,-0.032,0.045,0.003,108.0,110.0,104.0,13.4,1505.2,327.1,-0.7,1.8,2469.919,13.28,0.055,324.6
2021-03-20T09:10:03,42.805,6.029,-0.024,0.045,0.0,108.0,109.0,105.0,13.3,1505.2,327.5,-0.8,1.8,2469.932,13.28,0.051,331.9
2021-03-20T09:13:03,42.805,6.029,-0.024,0.028,0.019,110.0,109.0,106.0,13.4,1505.2,327.0,-0.8,1.8,2469.905,13.28,0.036,319.4
2021-03-20T09:16:03,42.805,6.029,-0.03,0.038,0.033,109.0,108.0,105.0,13.3,1505.2,327.4,-0.8,1.8,2469.888,13.28,0.048,321.7
2021-03-20T09:19:03,42.805,6.029,-0.036,0.03,0.005,108.0,111.0,105.0,13.4,1505.2,327.2,-0.8,1.8,2469.89,13.28,0.046,309.8
2021-03-20T09:22:03,42.805,6.029,-0.014,0.045,-0.018,108.0,110.0,106.0,13.4,1505.2,327.7,-0.7,1.8,2469.904,13.28,0.047,342.7
2021-03-20T09:25:03,42.805,6.029,-0.053,0.026,0.033,110.0,109.0,106.0,13.4,1505.2,327.3,-0.7,1.8,2469.915,13.28,0.059,296.1
2021-03-20T09:28:03,42.805,6.029,-0.021,0.035,0.013,109.0,109.0,105.0,13.3,1505.2,327.4,-0.8,1.8,2469.922,13.28,0.04,329.0
2021-03-20T09:31:03,42.805,6.029,-0.022,0.055,-0.003,109.0,108.0,106.0,13.4,1505.2,327.1,-0.7,1.8,2469.907,13.28,0.059,338.2
2021-03-20T09:34:03,42.805,6.029,-0.026,0.035,0.014,109.0,108.0,105.0,13.4,1505.2,327.4,-0.8,1.8,2469.889,13.28,0.043,323.4
2021-03-20T09:37:03,42.805,6.029,-0.018,0.03,0.001,108.0,109.0,105.0,13.4,1505.2,327.3,-0.8,1.8,2469.912,13.28,0.034,329.0
2021-03-20T09:40:03,42.805,6.029,0.001,0.035,0.006,108.0,108.0,106.0,13.3,1505.2,327.5,-0.8,1.8,2469.908,13.28,0.035,1.6
2021-03-20T09:43:03,42.805,6.029,-0.015,0.031,0.007,109.0,109.0,106.0,13.4,1505.2,327.5,-0.8,1.8,2469.921,13.28,0.034,334.2
2021-03-20T09:46:03,42.805,6.029,-0.016,0.047,0.005,109.0,109.0,106.0,13.4,1505.2,327.1,-0.8,1.8,2469.924,13.28,0.049,341.2
2021-03-20T09:49:03,42.805,6.029,-0.023,0.035,0.012,108.0,109.0,105.0,13.4,1505.2,326.9,-0.8,1.8,2469.897,13.28,0.041,326.7
2021-03-20T09:52:03,42.805,6.029,-0.023,0.035,-0.023,108.0,109.0,105.0,13.4,1505.2,327.8,-0.8,1.8,2469.914,13.28,0.041,326.7
2021-03-20T09:55:03,42.805,6.029,-0.017,0.056,0.025,109.0,108.0,106.0,13.3,1505.2,327.2,-0.8,1.8,2469.926,13.28,0.058,343.1
2021-03-20T09:58:03,42.805,6.029,-0.03,0.024,0.01,109.0,108.0,104.0,13.4,1505.2,327.7,-0.7,1.8,2469.932,13.28,0.038,308.7